sat.trackr.live / text

‹ back to catalog

STARLINK-5935

NORAD 56453 · 2023-064F

PAYLOAD ACTIVE UNKNOWN

§ Identity

Operator
Country
US
Launch date
2023-05-10
Launch site
AFWTR
Launch vehicle
Mass (kg)
RCS (m²)

Purposes: comms

External: N2YO · Heavens-Above · Gunter

§ Orbital elements

Epoch: 2026-05-25T04:48:32.770656Z

Period
96.11 min
Inclination
69.9985°
Eccentricity
0.0002364
Mean motion
14.98330377 rev/d
Perigee alt
570.4 km
Apogee alt
573.7 km
Semi-major
6,950.2 km
B*
2.5740e-5
RAAN
311.6636°
Arg perigee
271.2251°
Mean anomaly
88.8637°
Rev number
16,670

§ Raw data

STARLINK-59351 56453U 23064F   26145.20037929  .00000214  00000+0  25740-4 0  99962 56453  69.9985 311.6636 0002364 271.2251  88.8637 14.98330377166707

JSON: /api/v1/satellites/56453 · /tle

For live sub-satellite position, see the globe view (requires WebGL).

§ Visibility from observer

Set your observer location to see the next 7 days of passes ≥ 10°. The values pass through the URL so the page stays shareable.

No JS? Fill the form by hand. The geolocation button needs JavaScript.